Theta_e
311 311 311 312 312 312 312 312 313 313 314 314 315 315 315 316 313 304 300 310 312 320 314 302 299 297 296 294 296 301 285 283 288 288 289 292 290 294 297 296 296 317 302 310 321
310 310 310 311 311 311 311 312 312 313 313 314 314 314 315 315 299 298 310 317 318 318 303 298 296 295 291 291 292 293 284 289 290 290 290 291 290 291 292 292 295 295 299 301 318
309 309 309 310 310 310 311 311 312 312 313 313 314 314 315 308 293 296 313 316 317 312 304 300 297 294 290 291 290 289 287 289 290 293 291 291 290 292 290 289 291 292 295 299 311
309 309 309 309 309 310 310 311 311 313 313 314 313 314 313 297 281 298 313 314 315 306 303 297 295 291 288 286 291 285 290 291 292 292 290 289 291 289 290 292 294 295 296 298 299
308 308 308 308 309 309 310 310 311 313 312 314 315 313 298 292 293 303 311 308 305 302 298 296 292 290 286 288 289 287 288 291 291 291 290 291 289 289 290 293 294 295 295 295 297
308 307 307 308 308 308 309 310 312 312 312 314 315 308 294 287 302 303 302 303 302 299 296 297 294 292 289 288 286 288 290 289 290 289 290 288 288 289 290 292 293 294 294 294 296
307 307 307 307 308 308 309 311 313 312 312 314 313 300 295 292 301 302 302 300 302 301 295 297 297 292 290 287 291 289 285 285 286 288 288 289 285 287 290 291 291 292 293 294 295
307 306 306 307 308 309 311 312 312 311 311 312 309 297 291 301 303 302 301 300 303 303 299 298 297 293 290 291 286 283 282 279 285 287 288 287 282 287 291 290 290 292 293 294 294
306 305 306 307 309 310 310 311 310 309 311 309 297 293 289 305 298 301 299 298 300 300 298 299 294 288 288 281 280 281 277 279 281 287 287 286 282 289 291 290 291 293 294 294 295
306 305 306 307 309 309 310 310 308 303 302 300 298 288 295 293 297 300 300 299 296 294 293 291 288 284 283 281 276 279 278 279 279 284 286 284 283 288 290 290 291 293 294 295 296
306 305 306 308 309 308 299 291 290 290 294 289 290 291 294 298 300 298 300 295 294 290 284 286 284 281 281 283 283 281 280 278 281 285 285 283 284 287 289 289 292 293 294 294 296
306 305 305 307 308 306 296 288 288 293 287 293 293 294 296 297 291 295 299 290 288 284 284 282 280 284 286 285 284 282 281 279 282 285 286 283 284 287 288 289 292 293 294 294 296
307 305 305 306 306 298 293 292 298 294 285 288 294 292 292 296 291 292 295 290 285 283 282 280 283 287 285 283 283 282 281 280 281 285 284 283 281 283 289 289 291 294 295 296 296
307 304 304 307 296 293 291 297 298 292 274 281 285 289 293 293 288 296 295 290 286 282 283 282 285 284 283 283 283 280 284 285 284 281 276 283 273 281 287 287 288 291 293 293 295
306 303 306 305 293 289 294 298 296 289 268 281 285 294 292 288 288 290 293 290 283 283 281 281 282 283 282 284 285 282 285 285 285 281 276 280 274 279 286 283 285 289 291 292 294
306 304 305 299 294 294 297 293 289 276 269 276 283 284 285 287 287 289 288 290 287 281 282 282 285 284 284 285 285 287 284 283 283 280 271 279 277 275 281 282 285 288 290 292 293
305 304 302 298 289 297 294 287 274 270 277 274 279 283 283 282 283 285 283 281 275 272 269 278 280 284 286 283 285 283 279 271 269 269 271 279 276 278 285 286 285 287 288 291 293
304 304 301 299 298 294 287 278 267 268 271 281 282 282 280 281 281 282 280 275 278 274 270 270 271 280 285 284 283 282 281 271 264 267 272 279 274 280 286 287 288 288 289 291 291
304 296 296 298 297 291 282 268 272 273 279 280 280 275 275 281 279 277 277 277 279 277 272 270 273 281 285 285 286 281 280 285 279 273 274 275 279 284 287 285 285 286 287 288 290
294 293 293 298 292 287 277 275 273 280 282 281 276 276 269 276 275 273 275 281 280 282 280 280 273 279 283 284 284 284 285 277 277 267 264 273 275 278 281 281 283 283 285 287 289
292 285 293 297 292 281 270 270 278 283 284 280 278 276 277 276 276 269 275 281 282 282 282 282 277 277 281 279 279 280 281 282 281 278 272 270 274 282 280 282 281 283 285 287 288
288 278 295 292 279 261 269 273 283 283 284 282 282 280 278 279 277 277 277 279 284 284 278 281 280 272 275 279 281 281 280 280 275 273 276 277 275 283 282 283 283 283 285 287 289
284 286 295 290 272 269 272 278 282 283 283 282 282 282 280 279 276 280 279 283 284 282 281 283 274 264 272 279 279 278 281 281 280 279 276 273 273 283 283 283 283 282 284 286 288
286 281 286 289 279 276 276 278 279 284 283 283 283 283 280 279 281 278 279 283 285 285 289 285 277 273 269 274 277 276 276 279 279 276 275 276 276 278 280 280 281 282 284 286 286
285 281 284 279 279 279 281 280 279 279 282 284 282 282 280 275 278 278 279 281 283 287 282 278 266 275 276 277 277 277 277 278 277 278 275 276 275 278 279 279 279 281 285 285 285
280 279 281 280 282 280 281 278 280 281 282 281 279 282 280 277 280 278 280 280 280 281 280 277 266 269 264 275 276 275 277 277 278 278 276 276 276 281 281 279 279 281 283 284 284
286 287 286 283 281 279 277 279 281 283 283 284 282 280 279 281 281 282 282 282 282 280 276 271 265 262 261 270 271 264 272 277 278 277 278 274 278 280 279 280 279 280 281 282 283
Wind_Speed
5 6 7 8 9 10 12 12 14 14 14 14 15 15 13 12 8 8 12 13 14 20 13 8 6 7 6 6 6 2 6 3 2 3 6 6 8 6 6 4 7 5 7 11 13
4 6 6 8 9 10 12 13 13 14 15 15 14 13 12 8 3 10 13 22 21 20 7 10 8 8 6 6 5 6 5 1 1 1 2 6 4 7 8 12 6 17 18 15 6
3 4 6 7 9 10 11 13 15 15 14 14 13 13 11 2 5 6 20 22 21 15 1 3 2 5 7 4 6 4 4 0 2 2 3 2 7 5 6 4 5 13 19 19 13
3 5 6 8 9 11 11 12 14 15 14 13 12 12 8 2 3 5 21 19 16 9 5 7 7 6 6 6 4 6 3 3 3 5 4 4 4 7 3 3 8 11 11 10 13
2 4 6 7 9 11 11 11 13 14 12 11 12 8 4 8 3 6 17 13 6 6 9 5 9 4 6 4 4 6 4 3 4 3 4 3 7 5 4 5 10 10 15 14 13
2 4 6 8 9 10 11 11 10 12 10 10 12 4 5 8 5 8 8 6 7 6 9 9 5 4 6 4 5 2 3 4 3 6 2 10 7 1 2 10 20 20 19 16 14
2 3 5 7 9 10 11 11 9 9 9 10 11 5 10 4 3 7 6 3 5 3 5 4 3 7 1 3 5 2 3 4 6 9 5 10 5 3 4 13 17 18 17 17 16
2 4 5 7 10 11 11 10 7 6 8 8 5 5 5 2 4 5 7 3 7 5 3 4 5 7 6 1 6 7 6 7 5 9 6 5 6 7 10 10 16 19 16 16 17
3 3 5 7 9 12 12 8 4 7 7 6 5 6 2 7 6 6 4 3 3 3 6 3 7 6 8 4 5 9 2 4 9 4 6 5 7 12 15 11 16 15 17 16 16
4 3 5 7 8 10 8 4 5 5 5 2 3 7 5 4 5 6 4 3 6 3 5 10 7 6 6 8 2 3 4 3 4 7 9 4 7 14 8 8 15 16 16 19 18
5 3 4 7 8 8 4 3 5 7 10 2 3 5 3 7 3 7 5 2 5 9 6 6 12 7 4 4 1 1 1 4 4 4 10 4 8 12 12 7 14 16 16 19 21
6 4 3 5 7 6 3 5 2 5 7 3 2 4 0 2 5 13 6 6 8 6 2 8 6 1 2 3 1 0 2 5 6 5 4 6 15 6 7 7 12 18 17 20 21
7 4 3 3 3 5 3 4 0 1 7 2 1 3 2 4 4 9 6 3 6 7 7 8 1 1 4 5 5 1 2 3 6 9 1 7 6 4 10 5 13 17 18 18 19
7 4 3 3 4 1 2 1 1 1 7 5 2 3 3 2 4 2 4 2 6 5 4 6 2 3 3 5 2 1 3 5 6 6 2 5 6 5 17 22 21 20 20 21 21
8 4 1 1 5 3 2 1 2 5 4 2 2 2 4 4 3 7 2 6 4 4 4 2 2 3 4 2 2 5 0 4 2 1 3 5 2 8 17 23 24 24 21 20 20
9 5 7 3 3 1 2 2 4 11 7 2 3 2 4 6 5 5 5 8 1 6 6 3 1 1 1 2 3 4 1 3 2 1 3 3 3 6 14 19 21 21 21 20 19
10 5 3 2 2 4 3 4 8 6 5 5 2 3 4 3 5 5 5 6 3 7 5 6 2 1 1 1 1 6 4 3 6 6 4 2 3 5 16 18 15 19 23 20 17
12 8 4 2 3 3 3 7 5 3 7 1 1 5 5 2 3 4 2 3 2 5 5 5 5 1 4 2 1 3 3 5 4 2 5 5 2 1 10 12 12 13 17 19 18
14 2 2 1 2 3 6 4 10 8 7 9 3 5 2 1 3 4 2 3 3 3 7 5 3 2 1 1 0 1 5 1 1 2 2 4 4 6 15 14 18 19 19 22 20
4 3 1 1 2 5 6 6 4 3 5 2 4 2 5 3 2 3 1 3 3 2 2 4 4 2 0 2 3 4 2 2 2 3 4 4 1 5 18 21 19 21 21 20 21
4 4 1 1 2 6 5 7 4 3 3 4 4 5 4 7 6 3 4 3 2 2 3 3 3 3 3 2 3 2 2 2 1 1 1 3 3 1 7 11 15 15 17 18 18
5 3 2 1 4 1 4 7 5 5 2 1 3 4 5 5 4 4 5 5 4 5 5 3 4 2 2 1 1 1 4 2 3 3 3 1 4 3 5 9 10 13 14 15 15
5 3 1 1 5 3 2 0 2 5 5 5 2 1 2 6 5 3 4 1 5 3 6 5 1 4 6 2 2 2 2 2 1 2 4 2 4 4 13 14 13 12 14 13 15
5 5 2 3 1 7 6 3 4 2 4 3 4 4 5 4 3 5 3 1 2 1 6 4 2 4 6 5 3 3 3 3 3 3 2 4 7 8 13 13 14 14 13 11 13
3 5 6 9 8 4 3 9 7 7 2 4 1 4 7 6 3 4 3 2 3 6 4 4 4 0 1 1 1 3 5 4 6 4 5 3 3 3 5 7 8 7 11 10 13
8 7 1 3 11 11 9 10 12 5 8 6 4 8 6 8 8 10 8 4 5 2 3 2 3 4 5 2 3 4 7 6 5 3 4 4 4 4 2 3 6 8 10 10 10
3 2 7 11 8 13 8 8 11 12 2 2 9 6 5 6 5 6 5 5 7 7 3 4 6 4 4 4 3 7 9 8 4 2 4 4 2 1 1 4 5 6 7 9 9
Wind_Direction
8 3 5 358 359 1 356 356 353 355 351 349 347 348 346 350 340 38 44 345 340 337 337 317 14 4 33 58 36 68 63 71 38 40 303 336 359 328 304 319 315 14 42 341 327
2 356 359 355 354 356 354 350 349 350 347 346 344 346 338 333 42 49 356 349 345 347 5 20 6 1 52 20 23 62 80 107 118 65 1 298 0 318 352 332 353 346 341 335 317
356 351 349 352 349 349 350 348 344 344 348 344 343 340 345 359 66 332 342 344 343 350 222 10 347 54 61 30 1 20 102 335 125 9 332 266 323 321 335 351 33 332 327 337 338
351 347 345 346 346 342 344 347 342 340 348 347 349 337 345 2 80 294 338 338 347 356 27 18 32 49 61 50 342 91 41 45 350 340 341 328 295 324 232 272 333 304 295 321 341
324 337 336 337 340 339 336 345 343 334 346 353 356 350 37 44 44 313 335 340 4 12 38 27 43 50 68 57 40 51 346 343 324 0 32 280 296 233 290 336 307 305 323 321 320
283 323 328 332 336 337 331 335 342 330 339 347 2 31 54 70 274 326 329 353 16 31 25 33 59 61 91 57 61 304 287 297 352 358 80 0 315 71 301 342 338 329 322 318 309
264 308 326 330 331 331 326 324 335 323 330 347 8 55 66 141 326 319 2 7 359 32 53 35 50 78 51 58 336 354 32 6 30 346 30 320 25 45 337 337 318 318 313 308 305
250 301 322 329 327 323 320 321 331 317 318 335 27 74 89 301 287 352 346 18 13 29 58 38 73 95 66 230 21 33 50 4 349 356 357 26 286 299 317 324 323 321 316 312 307
218 284 318 328 328 322 310 311 347 324 313 325 58 86 72 322 12 325 5 19 316 23 26 72 65 71 14 57 38 20 345 13 318 60 356 49 292 297 316 336 340 332 323 322 315
212 278 318 327 335 339 322 303 322 23 343 323 74 61 8 324 308 330 322 43 57 21 21 35 54 73 18 28 74 318 343 330 256 313 358 317 288 302 312 333 347 339 330 325 321
205 255 312 326 336 358 19 16 20 3 36 68 150 117 335 296 297 341 330 45 30 54 62 15 63 50 334 338 339 207 257 285 251 293 347 328 301 302 314 320 347 344 337 327 321
202 239 295 331 329 10 62 89 142 152 89 2 72 84 137 330 1 349 10 70 49 66 337 42 70 276 236 60 65 10 331 342 294 285 333 332 305 288 315 307 350 343 343 330 323
202 230 288 322 353 36 61 138 187 100 91 356 17 65 338 40 35 331 19 54 89 52 30 99 166 282 101 58 35 38 68 25 316 311 333 317 297 325 348 343 344 347 341 338 332
199 223 284 303 53 171 29 271 92 80 75 291 347 25 23 65 24 327 2 96 40 123 90 83 4 51 81 85 66 25 138 327 310 353 330 31 294 308 357 352 1 349 349 342 332
191 202 295 213 142 96 183 133 89 54 21 290 3 304 45 72 337 356 13 26 89 109 95 238 69 55 68 113 129 218 358 291 281 31 55 346 54 281 355 354 351 347 349 340 331
180 169 130 68 50 135 136 76 55 47 261 276 301 74 66 27 10 311 33 46 86 83 33 93 356 149 265 275 196 292 69 87 69 341 37 297 109 300 6 347 345 337 338 343 335
168 165 115 106 202 147 91 40 48 134 349 274 174 100 86 25 3 21 36 26 110 83 4 352 5 286 273 19 38 14 58 356 1 11 229 339 71 242 2 350 341 335 332 342 341
152 116 38 37 120 118 62 52 101 220 214 225 122 87 108 72 349 358 69 43 22 74 100 128 321 31 349 74 116 1 55 131 207 322 295 340 355 270 18 343 344 343 339 339 345
126 60 62 110 127 58 75 78 203 192 164 156 56 87 347 111 156 55 23 164 202 161 125 117 332 321 144 187 339 8 61 37 256 20 302 285 308 312 342 352 353 358 352 344 345
105 94 115 139 94 62 78 236 181 154 124 130 136 143 153 186 106 74 250 252 157 206 162 170 79 272 26 121 17 75 158 96 25 30 323 294 206 301 337 343 347 352 348 343 339
91 108 213 129 60 53 171 220 205 199 154 169 157 132 160 152 157 190 204 262 172 140 86 136 93 263 70 19 168 36 83 87 94 223 219 306 263 38 313 333 337 340 339 342 346
122 129 149 159 85 338 173 188 184 144 215 214 113 109 140 146 135 169 195 215 167 156 141 170 132 146 125 161 279 228 157 140 144 243 246 183 276 83 10 351 348 341 338 341 350
106 116 91 80 160 234 276 294 217 136 184 171 134 128 126 141 115 152 143 341 155 149 163 174 344 51 355 68 43 187 171 169 153 113 239 168 261 22 9 4 0 353 343 345 353
124 141 149 177 184 144 152 172 164 223 158 147 124 106 116 102 39 152 126 170 151 90 84 77 100 176 182 160 137 206 222 198 162 194 212 235 310 353 352 353 349 348 344 348 3
140 194 176 180 196 171 165 156 142 169 217 190 83 202 150 120 105 142 125 124 36 131 66 101 143 334 311 98 166 234 234 211 196 212 182 208 280 329 330 332 327 317 352 12 13
144 146 72 143 140 166 182 195 169 151 153 205 178 171 150 149 175 182 142 174 192 146 112 59 147 80 335 349 19 271 246 228 235 210 255 251 261 200 219 342 359 356 355 9 18
190 97 123 161 150 176 189 171 188 140 246 259 156 127 153 172 117 105 104 109 146 143 129 100 127 84 267 337 344 330 225 186 186 193 171 197 186 280 284 23 2 350 1 7 14